336P/McNaught (2006)

Japanese version
Home page
Updated on November 3, 2020

---------------------------------------------------------------------

* Profile

Designation 336P/2006 G1
Discovery Date April 5, 2006
Magnitude 18.0 mag
Discoverer R. H. McNaught (Siding Spring)

* Orbital Elements

Epoch 2006 Aug. 13.0 TT = JDT 2453960.5
T 2006 Aug. 18.52615 TT                                 MPCW
q   2.6320420            (2000.0)            P               Q
n   0.09320795     Peri.  313.94832     -0.25637838     +0.92583169
a   4.8176372      Node   299.25113     -0.77039177     -0.36922791
e   0.4536654      Incl.   18.55786     -0.58375221     +0.08066250
P  10.57
From 144 observations 2006 Apr. 5-2017 May 5, mean residual 0".5.

* Magnitudes Graph

        m1 = 12.0 + 5 log d + 10.0 log r

---------------------------------------------------------------------

The orbital elements are published on M.P.E.C. 2017-L52.
The magnitudes graphs are made with Comet for Windows.

---------------------------------------------------------------------

Copyright(C) Seiichi Yoshida (comet@aerith.net). All rights reserved.